[[[{"header":{"parameterUnit":"kt","parameterCategory":2,"dx":1,"dy":1,"la1":30.253999710083008,"la2":30.299108505249023,"lo1":-89.0895004272461,"lo2":-89.04439544677734,"nx":28,"ny":28,"refTime":"2022-09-26T21:00:00:Z","depth":0,"parameterNumber":1,"parameterNumberName":"U-component_of_WINDS"},"data":[-6.9544,-6.9633,-6.9613,-6.9705,-6.9702,-6.9761,-6.9776,-6.9792,-6.98,-6.9868,-6.9903,-6.9891,-6.9891,-6.9928,-6.9964,-6.9958,-6.9975,-7.0021,-7.0006,-6.982,-6.9794,-6.9768,-6.9746,-7.0025,-7.0025,-7.02,-7.0202,-7.0203,-6.941,-6.9409,-6.9451,-6.9479,-6.9516,-6.946,-6.9477,-6.9511,-6.9565,-6.9576,-6.9609,-6.9666,-6.9709,-6.9693,-6.973,-6.977,-6.9746,-6.9782,-6.9779,-6.9779,-6.9581,-6.9558,-6.9801,-6.9801,-6.9801,-6.9801,-6.98,-6.98,-6.9159,-6.9213,-6.9218,-6.9264,-6.9273,-6.9292,-6.9339,-6.9324,-6.9365,-6.9402,-6.937,-6.943,-6.9437,-6.9472,-6.9478,-6.9524,-6.9481,-6.9514,-6.9522,-6.9531,-6.9544,-6.9294,-6.9529,-6.9529,-6.9528,-6.9527,-6.9527,0,-6.8969,-6.8949,-6.8989,-6.9023,-6.9055,-6.908,-6.9098,-6.9127,-6.9076,-6.9113,-6.9163,-6.9188,-6.9238,-6.9283,-6.9313,-6.9313,-6.9259,-6.9251,-6.9273,-6.929,-6.9302,-6.9297,-6.8974,-6.9244,-6.9242,-6.924,-6.9238,-6.9237,-6.8716,-6.8781,-6.8777,-6.8807,-6.8812,-6.8862,-6.8888,-6.8838,-6.8867,-6.8882,-6.8932,-6.8976,-6.9009,-6.9092,-6.9073,-6.9111,-6.9085,-6.919,-6.909,-6.9103,-6.9087,-6.9084,-6.909,-6.9211,-6.9214,-6.9217,-6.9219,0,-6.8575,-6.8542,-6.8636,-6.8625,-6.8624,-6.8695,-6.8685,-6.8736,-6.8715,-6.8783,-6.8796,-6.8764,-6.8814,-6.8777,-6.8827,-6.8806,-6.8921,-6.8894,-6.8918,-6.8911,-6.9002,-6.8994,-6.9303,-6.934,-6.9051,-6.9053,-6.9056,0,-6.8345,-6.8433,-6.8378,-6.8435,-6.8529,-6.8477,-6.8572,-6.8564,-6.8568,-6.8621,-6.8553,-6.8604,-6.8549,-6.8595,-6.8564,-6.8651,-6.8661,-6.865,-6.8641,-6.8657,-6.8658,-6.8672,-6.8659,-6.8618,-6.8616,-6.8615,-6.8614,0,-6.8129,-6.8201,-6.8293,-6.8304,-6.8301,-6.8345,-6.8346,-6.835,-6.8376,-6.8402,-6.8418,-6.8453,-6.8473,-6.8501,-6.8462,-6.8395,-6.8567,-6.8468,-6.8557,-6.8558,-6.8597,-6.8596,-6.8877,-6.8612,-6.8611,-6.8611,-6.861,0,-6.7938,-6.7967,-6.8105,-6.81,-6.8121,-6.8182,-6.8212,-6.8255,-6.8265,-6.8249,-6.827,-6.822,-6.8293,-6.8197,-6.8297,-6.8221,-6.8244,-6.8241,-6.8246,-6.8251,-6.8145,-6.831,-6.8581,-6.8608,-6.8255,-6.8252,-6.8249,0,-6.77,-6.7829,-6.7785,-6.7917,-6.7972,-6.7891,-6.7957,-6.7967,-6.7952,-6.7996,-6.7978,-6.8029,-6.7949,-6.796,-6.8014,-6.7999,-6.8097,-6.7984,-6.8048,-6.8051,-6.8049,-6.8297,-6.8347,-6.8525,-6.8211,-6.8215,-6.8218,0,-6.751,-6.7506,-6.7533,-6.7543,-6.7549,-6.7595,-6.767,-6.7708,-6.774,-6.7759,-6.7821,-6.789,-6.7833,-6.7852,-6.7815,-6.7873,-6.8029,-6.7804,-6.7804,-6.7847,-6.8188,-6.8235,-6.8266,-6.7991,-6.7995,-6.7999,-6.8187,0,-6.7232,-6.7292,-6.7362,-6.7388,-6.7417,-6.7498,-6.7458,-6.7494,-6.7455,-6.7437,-6.7527,-6.7527,-6.7566,-6.759,-6.7553,-6.7698,-6.7668,-6.7607,-6.7511,-6.7674,-6.7736,-6.776,-6.7423,-6.742,-6.7417,-6.7415,0,0,-6.7012,-6.7097,-6.7047,-6.7118,-6.714,-6.7055,-6.7144,-6.7155,-6.718,-6.7197,-6.7143,-6.7241,-6.7243,-6.7357,-6.7405,-6.742,-6.7443,-6.7387,-6.7597,-6.7617,-6.7636,-6.7702,-6.7729,-6.7411,-6.741,-6.7409,-6.7408,0,-6.6902,-6.6906,-6.6995,-6.7004,-6.7015,-6.6992,-6.7013,-6.701,-6.7002,-6.709,-6.7019,-6.7068,-6.7149,-6.716,-6.7177,-6.7372,-6.7316,-6.7387,-6.7506,-6.7572,-6.7596,-6.7617,-6.7687,-6.7713,-6.7402,-6.7402,-6.7402,0,-6.6709,-6.6706,-6.6745,-6.679,-6.6797,-6.6855,-6.6745,-6.6812,-6.6854,-6.6758,-6.6847,-6.6841,-6.6853,-6.6965,-6.7014,-6.6967,-6.7204,-6.7122,-6.7137,-6.7142,-6.7204,-6.7233,-6.7258,-6.6922,-6.692,-6.6919,0,0,-6.662,-6.6675,-6.6657,-6.6764,-6.6773,-6.6739,-6.6766,-6.6731,-6.6743,-6.6748,-6.674,-6.6754,-6.68,-6.6832,-6.6873,-6.7001,-6.7,-6.7064,-6.7087,-6.7105,-6.7121,-6.7188,-6.7216,-6.6913,-6.6913,-6.6913,0,0,-6.6577,-6.656,-6.6519,-6.6637,-6.6652,-6.6641,-6.6707,-6.6657,-6.669,-6.6676,-6.6619,-6.662,-6.6724,-6.6722,-6.665,-6.6838,-6.6744,-6.676,-6.6836,-6.6864,-6.6886,-6.6885,-6.6537,0,0,0,0,0,-6.6444,-6.6561,-6.6525,-6.6539,-6.6595,-6.6661,-6.6668,-6.6624,-6.6558,-6.6611,-6.6596,-6.6534,-6.6671,-6.6606,-6.6621,-6.6702,-6.684,-6.6853,-6.6865,-6.6993,-6.7023,-6.7048,0,0,0,0,0,0,-6.645,-6.6467,-6.6521,-6.6516,-6.6528,-6.6656,-6.6535,-6.6526,-6.6551,-6.6538,-6.6539,-6.6534,-6.6497,-6.6596,-6.661,-6.6687,-6.6532,-6.6845,-6.6856,-6.6866,-6.7003,-6.7027,-6.7048,0,0,0,0,0,-6.6453,-6.6467,-6.657,-6.6514,-6.6524,-6.6493,-6.6531,-6.6522,-6.654,-6.6517,-6.651,-6.6505,-6.6501,-6.651,-6.6604,-6.6682,-6.6522,-6.6528,-6.6852,-6.6861,-6.6869,-6.7015,0,0,0,0,0,0,-6.6456,-6.646,-6.6571,-6.6572,-6.6466,-6.6485,-6.6487,-6.6519,-6.6517,-6.6512,-6.6479,-6.6469,-6.6505,-6.6511,-6.6518,-6.6683,-6.6514,-6.652,-6.6523,-6.6859,-6.6866,-6.6872,0,0,0,0,0,0,-6.6452,-6.6462,-6.6572,-6.6514,-6.6509,-6.6478,-6.6479,-6.6553,-6.6518,-6.6479,-6.647,-6.6475,-6.6494,-6.6512,-6.6517,-6.6634,-6.6508,-6.6513,-6.6517,-6.6519,-6.6864,-6.687,0,0,0,0,0,0,-6.6455,-6.6464,-6.6513,-6.6509,-6.6504,-6.6518,-6.6542,-6.6602,-6.6469,-6.648,-6.6456,-6.645,-6.6498,-6.6502,-6.6518,-6.6632,-6.6633,-6.6508,-6.6512,-6.6514,-6.6516,0,0,0,0,0,0,0,-6.6458,-6.6412,-6.6562,-6.6505,-6.6501,-6.6587,-6.6587,-6.6587,-6.6468,-6.6463,-6.6457,-6.6453,-6.6478,-6.6484,-6.649,-6.6631,0,0,-6.6508,-6.651,0,0,0,0,0,0,0,0,-6.6408,-6.6411,-6.6562,-6.6562,-6.6562,-6.6587,-6.6587,-6.6587,-6.6467,-6.6463,-6.6459,-6.6455,-6.648,-6.6484,-6.6489,0,0,0,0,0,0,0,0,0,0,0,0,0,0,0,-6.6562,-6.6562,0,-6.6587,-6.6587,-6.6587,-6.6466,-6.6463,-6.6459,-6.6456,-6.6481,-6.6485,-6.6489,0,0,0,0,0,0,0,0,0,0,0,0,0,0,0,0,0,0,0,0,0,0,0,0,0,0,0,0,0,0,0,0,0,0,0,0,0,0,0,0,0,0,0,0,0,0,0,0,0,0,0,0,0,0,0,0,0,0,0,0,0,0,0,0,0,0,0,0,0]}],[{"header":{"parameterUnit":"kt","parameterCategory":2,"dx":1,"dy":1,"la1":30.253999710083008,"la2":30.299108505249023,"lo1":-89.0895004272461,"lo2":-89.04439544677734,"nx":28,"ny":28,"refTime":"2022-09-26T21:00:00:Z","depth":0,"parameterNumber":2,"parameterNumberName":"V-component_of_WINDS"},"data":[-19.1558,-19.1764,-19.1767,-19.2001,-19.2041,-19.22,-19.2256,-19.2328,-19.2384,-19.2569,-19.2674,-19.269,-19.2741,-19.2862,-19.2972,-19.2975,-19.3022,-19.3097,-19.3088,-19.276,-19.2714,-19.267,-19.2623,-19.3107,-19.3108,-19.3428,-19.3431,-19.3433,-19.1322,-19.1367,-19.1491,-19.1612,-19.1718,-19.1648,-19.1735,-19.1827,-19.1968,-19.2037,-19.214,-19.23,-19.2424,-19.2448,-19.2565,-19.2656,-19.2627,-19.2688,-19.2681,-19.269,-19.2339,-19.229,-19.271,-19.271,-19.271,-19.271,-19.271,-19.271,-19.0894,-19.1017,-19.1091,-19.1225,-19.1285,-19.1364,-19.1479,-19.1499,-19.1616,-19.1743,-19.1715,-19.1872,-19.1936,-19.2073,-19.2117,-19.2236,-19.2166,-19.223,-19.2247,-19.2263,-19.2284,-19.1825,-19.2255,-19.2253,-19.2252,-19.2251,-19.225,0,-19.0579,-19.0573,-19.069,-19.081,-19.0907,-19.0997,-19.1078,-19.1149,-19.1124,-19.1221,-19.136,-19.1439,-19.1592,-19.1719,-19.1826,-19.1856,-19.1786,-19.1778,-19.1822,-19.1839,-19.1843,-19.1844,-19.1274,-19.1764,-19.176,-19.1757,-19.1755,-19.1753,-19.0147,-19.029,-19.0365,-19.0448,-19.0492,-19.0624,-19.0702,-19.067,-19.0753,-19.0844,-19.0951,-19.1078,-19.1178,-19.1396,-19.1408,-19.152,-19.1486,-19.1675,-19.1502,-19.1514,-19.149,-19.1482,-19.1496,-19.1709,-19.1714,-19.1719,-19.1723,0,-18.9904,-18.9902,-19.0121,-19.0179,-19.0197,-19.0347,-19.0393,-19.0511,-19.0513,-19.0675,-19.071,-19.0713,-19.0847,-19.0828,-19.0974,-19.096,-19.1201,-19.1165,-19.118,-19.1172,-19.1339,-19.1324,-19.1884,-19.1956,-19.1453,-19.1458,-19.1462,0,-18.9534,-18.9721,-18.9706,-18.9833,-19.0039,-19.0001,-19.0204,-19.0226,-19.0281,-19.0408,-19.0328,-19.0448,-19.0404,-19.0521,-19.05,-19.0692,-19.0719,-19.0719,-19.0711,-19.0727,-19.0728,-19.0767,-19.0744,-19.0686,-19.0683,-19.0681,-19.0679,0,-18.9154,-18.9363,-18.9569,-18.9615,-18.9692,-18.9789,-18.9824,-18.9883,-18.9958,-19.005,-19.0098,-19.0206,-19.0266,-19.035,-19.0322,-19.0206,-19.0557,-19.0391,-19.0557,-19.0558,-19.0634,-19.063,-19.1131,-19.0675,-19.0674,-19.0673,-19.0672,0,-18.8853,-18.8954,-18.9253,-18.9314,-18.9369,-18.9503,-18.9611,-18.9721,-18.9789,-18.9785,-18.9856,-18.9799,-18.9965,-18.9802,-19.003,-18.9887,-18.995,-18.9964,-18.9976,-18.9989,-18.9807,-19.0093,-19.0573,-19.0622,-19.0002,-18.9997,-18.9992,0,-18.842,-18.872,-18.869,-18.8972,-18.9108,-18.901,-18.9157,-18.9219,-18.9227,-18.9339,-18.9344,-18.9471,-18.9346,-18.9382,-18.9498,-18.9507,-18.9693,-18.9481,-18.9639,-18.9646,-18.9627,-19.0068,-19.0145,-19.047,-18.992,-18.9928,-18.9933,0,-18.8083,-18.8175,-18.8228,-18.8279,-18.8358,-18.8469,-18.8637,-18.8756,-18.8834,-18.891,-18.9049,-18.9225,-18.9138,-18.9198,-18.9161,-18.9282,-18.9566,-18.917,-18.9171,-18.9243,-18.9881,-18.9954,-19.0009,-18.9513,-18.9522,-18.9529,-18.9876,0,-18.7632,-18.778,-18.7921,-18.8034,-18.8117,-18.8291,-18.8274,-18.8362,-18.832,-18.8323,-18.8525,-18.8566,-18.8682,-18.8737,-18.8694,-18.8978,-18.8927,-18.8831,-18.8669,-18.8959,-18.9073,-18.9119,-18.8502,-18.8497,-18.8493,-18.849,0,0,-18.7218,-18.7429,-18.7388,-18.7551,-18.7618,-18.7512,-18.77,-18.7751,-18.7857,-18.7905,-18.7815,-18.807,-18.8106,-18.8352,-18.8441,-18.8487,-18.8535,-18.8433,-18.8821,-18.8858,-18.8892,-18.9015,-18.9063,-18.8482,-18.8481,-18.8479,-18.8478,0,-18.705,-18.7097,-18.7285,-18.7338,-18.7415,-18.7409,-18.7454,-18.7509,-18.7518,-18.7716,-18.7621,-18.7738,-18.794,-18.7992,-18.8045,-18.8404,-18.8324,-18.844,-18.8643,-18.878,-18.8823,-18.886,-18.8989,-18.9036,-18.8468,-18.8469,-18.8469,0,-18.6715,-18.6759,-18.6847,-18.6995,-18.7043,-18.7182,-18.7011,-18.7164,-18.7266,-18.7134,-18.7331,-18.735,-18.7416,-18.7651,-18.7754,-18.7675,-18.8133,-18.7983,-18.8008,-18.8018,-18.8151,-18.8202,-18.8247,-18.7647,-18.7644,-18.7641,0,0,-18.6571,-18.6708,-18.674,-18.6957,-18.6995,-18.6987,-18.7057,-18.7022,-18.7087,-18.7113,-18.7135,-18.7198,-18.7315,-18.7392,-18.75,-18.7761,-18.777,-18.7883,-18.7921,-18.7953,-18.7981,-18.8122,-18.8172,-18.7631,-18.7631,-18.763,0,0,-18.6501,-18.655,-18.6496,-18.6746,-18.6814,-18.6856,-18.6988,-18.6922,-18.7018,-18.6995,-18.6937,-18.6951,-18.7169,-18.719,-18.7055,-18.7442,-18.7283,-18.7314,-18.742,-18.7469,-18.7507,-18.7496,-18.688,0,0,0,0,0,-18.6319,-18.6544,-18.6495,-18.6534,-18.6717,-18.6884,-18.6907,-18.6867,-18.6757,-18.6863,-18.6871,-18.6779,-18.7106,-18.6984,-18.7021,-18.7172,-18.7497,-18.7521,-18.7543,-18.7741,-18.7792,-18.7835,0,0,0,0,0,0,-18.6334,-18.6382,-18.6489,-18.6543,-18.6583,-18.6876,-18.668,-18.6675,-18.6745,-18.6725,-18.6781,-18.6781,-18.6747,-18.6962,-18.6996,-18.7141,-18.6868,-18.7507,-18.7527,-18.7545,-18.7758,-18.78,-18.7836,0,0,0,0,0,-18.6346,-18.6384,-18.6689,-18.6539,-18.6574,-18.6576,-18.6671,-18.6666,-18.6718,-18.673,-18.6727,-18.6682,-18.6752,-18.6778,-18.6982,-18.7126,-18.6844,-18.6857,-18.752,-18.7535,-18.755,-18.7779,0,0,0,0,0,0,-18.6354,-18.6379,-18.6695,-18.6704,-18.6451,-18.6558,-18.6574,-18.6658,-18.6717,-18.6718,-18.6627,-18.6611,-18.6759,-18.6777,-18.6798,-18.7124,-18.6824,-18.6838,-18.6846,-18.7532,-18.7544,-18.7555,0,0,0,0,0,0,-18.6358,-18.6388,-18.67,-18.6591,-18.6587,-18.6543,-18.6557,-18.6722,-18.6719,-18.661,-18.6599,-18.6619,-18.6726,-18.6778,-18.6793,-18.7054,-18.681,-18.6822,-18.6831,-18.6836,-18.7542,-18.7552,0,0,0,0,0,0,-18.6369,-18.6395,-18.6588,-18.6586,-18.6582,-18.668,-18.6687,-18.6876,-18.6632,-18.6609,-18.6608,-18.6597,-18.673,-18.6744,-18.6792,-18.7046,-18.7052,-18.681,-18.6819,-18.6825,-18.6829,0,0,0,0,0,0,0,-18.6379,-18.6219,-18.6642,-18.6581,-18.6577,-18.6789,-18.6791,-18.6793,-18.6629,-18.662,-18.6611,-18.6602,-18.6738,-18.6752,-18.6765,-18.704,0,0,-18.6809,-18.6815,0,0,0,0,0,0,0,0,-18.6207,-18.6216,-18.6642,-18.6644,-18.6646,-18.6789,-18.6791,-18.6793,-18.6628,-18.662,-18.6613,-18.6605,-18.6741,-18.6753,-18.6764,0,0,0,0,0,0,0,0,0,0,0,0,0,0,0,-18.6643,-18.6644,0,-18.6789,-18.6791,-18.6793,-18.6627,-18.662,-18.6614,-18.6608,-18.6745,-18.6754,-18.6763,0,0,0,0,0,0,0,0,0,0,0,0,0,0,0,0,0,0,0,0,0,0,0,0,0,0,0,0,0,0,0,0,0,0,0,0,0,0,0,0,0,0,0,0,0,0,0,0,0,0,0,0,0,0,0,0,0,0,0,0,0,0,0,0,0,0,0,0,0]}]]]